User: anonymous   Login
Location: Observatoire de Paris
(48.8363°N, 2.3365°E)
Time: 21:47:40
(UTC+01:00)
Language:

BUGSAT 1 - Orbit

View from above orbital plane
View from above orbital plane
View from above satellite
View from above satellite

Ground track
Ground track

The orbit data is extracted from the following two-line orbital elements,

1 40014U 14033E   21262.54425695 -.00000305  00000-0 -21319-4 0  9993
2 40014  98.1193 245.4512 0030354 212.0341 147.9031 14.95835653395633
Epoch (UTC): 19 September 2021 13:03:43
Eccentricity: 0.0030354
inclination: 98.1193°
perigee height: 558 km
apogee height: 601 km
right ascension of ascending node: 245.4512°
argument of perigee: 212.0341°
revolutions per day: 14.95835653
mean anomaly at epoch: 147.9031°
orbit number at epoch: 39563

The dashed part of the orbit path shows where the satellite is in the earth's shadow,  

DLR